Terminal Aerodrome Forecast
Issued by NWS

Home | Current Version | Previous Version | Text Only | Print | Product List | Glossary On
Versions: 1 2 3 4 5 6 7 8 9 10 11 12 13 14 15 16 17 18 19 20 21 22 23
000
FTUS46 KPDT 281700
TAFALW
TAF
KALW 281725Z 2818/2918 22006KT 1/4SM FG VV001
      TEMPO 2820/2822 3/4SM BR OVC003
     FM282200 23005KT 1SM BR SCT002 OVC007
     FM290200 13004KT 5SM BR SCT010 BKN025
     FM291200 16004KT 3SM BR SCT010 BKN120=

USA.gov is the U.S. government's official web portal to all federal, state and local government web resources and services.